[Date Prev][Date Next][Thread Prev][Thread Next] - [Date Index][Thread Index][Author Index]
2 Line ISS Keps 6-2
- Subject: [sarex] 2 Line ISS Keps 6-2
- From: "Dave Larsen PhD" <doc@xxxxxxxxxxx>
- Date: Mon, 2 Jun 2003 05:15:03 -0700
ISS
1 25544U 98067A 03153.37665258 .00012677 00000-0 16491-3 0 723
2 25544 51.6320 94.6563 0006554 203.9486 300.4770 15.59149485258696
----
Via the sarex mailing list at AMSAT.ORG courtesy of AMSAT-NA.
To unsubscribe, send "unsubscribe sarex" to Majordomo@amsat.org
AMSAT Home